Location: Sungai Liu
(2.3667°N, 113.8667°E)
Time: 12:55:57
(UTC+00:00)

USA 229 - Pass Details

Date: 20 May 2022
Orbit: 938 x 1274 km, 63.4° (Epoch: 24 May)

Event Time Altitude Azimuth Distance (km) Brightness Sun altitude
Rises 19:56:38 0° 340° (NNW) 4,165 6.9 -32.6°
Reaches altitude 10° 19:59:23 10° 341° (NNW) 3,224 6.2 -32.0°
Maximum altitude 20:07:17 79° 67° (ENE) 1,296 4.1 -30.2°
Drops below altitude 10° 20:15:12 10° 153° (SSE) 3,239 6.2 -28.4°
Sets 20:17:58 0° 154° (SSE) 4,185 6.8 -27.8°
